owner,sensor,date,latitude,longitude,vertical_datum,wind_speed,wind_to_direction,wind_speed_of_gust,qcFlag 
WAVCIS,ioos:station:WAVCIS:CSI15:1,2008-12-01T00:00:00Z,28.8332,-90.8320,10.0,16.08,269.0,,'11111222,11111222,99999999' 
WAVCIS,ioos:station:WAVCIS:CSI15:1,2008-12-01T01:00:00Z,28.8332,-90.8320,10.0,18.22,278.0,,'11111222,11111222,99999999' 
WAVCIS,ioos:station:WAVCIS:CSI15:1,2008-12-01T02:00:00Z,28.8332,-90.8320,10.0,16.66,286.0,,'11111222,11111222,99999999' 
WAVCIS,ioos:station:WAVCIS:CSI15:1,2008-12-01T03:00:00Z,28.8332,-90.8320,10.0,16.96,283.0,,'11111222,11111222,99999999' 
WAVCIS,ioos:station:WAVCIS:CSI15:1,2008-12-01T04:00:00Z,28.8332,-90.8320,10.0,16.73,274.0,,'11111222,11111222,99999999' 
WAVCIS,ioos:station:WAVCIS:CSI15:1,2008-12-01T05:00:00Z,28.8332,-90.8320,10.0,16.75,281.0,,'11111222,11111222,99999999' 
WAVCIS,ioos:station:WAVCIS:CSI15:1,2008-12-01T06:00:00Z,28.8332,-90.8320,10.0,14.61,276.0,,'11111222,11111222,99999999' 
WAVCIS,ioos:station:WAVCIS:CSI15:1,2008-12-01T07:00:00Z,28.8332,-90.8320,10.0,13.64,267.0,,'11111222,11111222,99999999' 
WAVCIS,ioos:station:WAVCIS:CSI15:1,2008-12-01T08:00:00Z,28.8332,-90.8320,10.0,12.27,259.0,,'11111222,11111222,99999999' 
WAVCIS,ioos:station:WAVCIS:CSI15:1,2008-12-01T09:00:00Z,28.8332,-90.8320,10.0,13.08,262.0,,'11111222,11111222,99999999' 
WAVCIS,ioos:station:WAVCIS:CSI15:1,2008-12-01T10:00:00Z,28.8332,-90.8320,10.0,12.66,280.0,,'11111222,11111222,99999999' 
WAVCIS,ioos:station:WAVCIS:CSI15:1,2008-12-01T11:00:00Z,28.8332,-90.8320,10.0,12.36,274.0,,'11111222,11111222,99999999' 
WAVCIS,ioos:station:WAVCIS:CSI15:1,2008-12-01T12:00:00Z,28.8332,-90.8320,10.0,12.27,276.0,,'11111222,11111222,99999999' 
WAVCIS,ioos:station:WAVCIS:CSI15:1,2008-12-01T13:00:00Z,28.8332,-90.8320,10.0,11.43,283.0,,'11111222,11111222,99999999' 
WAVCIS,ioos:station:WAVCIS:CSI15:1,2008-12-01T14:00:00Z,28.8332,-90.8320,10.0,9.4,275.0,,'11111222,11111222,99999999' 
WAVCIS,ioos:station:WAVCIS:CSI15:1,2008-12-01T15:00:00Z,28.8332,-90.8320,10.0,8.05,259.0,,'11111222,11111222,99999999' 
WAVCIS,ioos:station:WAVCIS:CSI15:1,2008-12-01T16:00:00Z,28.8332,-90.8320,10.0,13.66,264.0,,'11111222,11111222,99999999' 
WAVCIS,ioos:station:WAVCIS:CSI15:1,2008-12-01T17:00:00Z,28.8332,-90.8320,10.0,13.93,283.0,,'11111222,11111222,99999999' 
WAVCIS,ioos:station:WAVCIS:CSI15:1,2008-12-01T18:00:00Z,28.8332,-90.8320,10.0,15.4,270.0,,'11111222,11111222,99999999' 
WAVCIS,ioos:station:WAVCIS:CSI15:1,2008-12-01T19:00:00Z,28.8332,-90.8320,10.0,14.97,267.0,,'11111222,11111222,99999999' 
WAVCIS,ioos:station:WAVCIS:CSI15:1,2008-12-01T20:00:00Z,28.8332,-90.8320,10.0,14.42,264.0,,'11111222,11111222,99999999' 
WAVCIS,ioos:station:WAVCIS:CSI15:1,2008-12-01T21:00:00Z,28.8332,-90.8320,10.0,12.2,267.0,,'11111222,11111222,99999999' 
WAVCIS,ioos:station:WAVCIS:CSI15:1,2008-12-01T22:00:00Z,28.8332,-90.8320,10.0,12.62,272.0,,'11111222,11111222,99999999' 
WAVCIS,ioos:station:WAVCIS:CSI15:1,2008-12-01T23:00:00Z,28.8332,-90.8320,10.0,14.42,284.0,,'11111222,11111222,99999999' 
WAVCIS,ioos:station:WAVCIS:CSI15:1,2008-12-02T00:00:00Z,28.8332,-90.8320,10.0,12.19,269.0,,'11111222,11111222,99999999' 
WAVCIS,ioos:station:WAVCIS:CSI15:1,2008-12-02T01:00:00Z,28.8332,-90.8320,10.0,13.59,309.0,,'11111222,11111222,99999999' 
WAVCIS,ioos:station:WAVCIS:CSI15:1,2008-12-02T02:00:00Z,28.8332,-90.8320,10.0,13.3,311.0,,'11111222,11111222,99999999' 
WAVCIS,ioos:station:WAVCIS:CSI15:1,2008-12-02T03:00:00Z,28.8332,-90.8320,10.0,11.92,301.0,,'11111222,11111222,99999999' 
WAVCIS,ioos:station:WAVCIS:CSI15:1,2008-12-02T04:00:00Z,28.8332,-90.8320,10.0,12.11,310.0,,'11111222,11111222,99999999' 
WAVCIS,ioos:station:WAVCIS:CSI15:1,2008-12-02T05:00:00Z,28.8332,-90.8320,10.0,9.44,314.0,,'11111222,11111222,99999999' 
WAVCIS,ioos:station:WAVCIS:CSI15:1,2008-12-02T06:00:00Z,28.8332,-90.8320,10.0,8.23,317.0,,'11111222,11111222,99999999' 
WAVCIS,ioos:station:WAVCIS:CSI15:1,2008-12-02T07:00:00Z,28.8332,-90.8320,10.0,7.13,319.0,,'11111222,11111222,99999999' 
WAVCIS,ioos:station:WAVCIS:CSI15:1,2008-12-02T08:00:00Z,28.8332,-90.8320,10.0,6.726,334.0,,'11111222,11111222,99999999' 
WAVCIS,ioos:station:WAVCIS:CSI15:1,2008-12-02T09:00:00Z,28.8332,-90.8320,10.0,5.356,313.0,,'11111222,11111222,99999999' 
WAVCIS,ioos:station:WAVCIS:CSI15:1,2008-12-02T10:00:00Z,28.8332,-90.8320,10.0,3.481,347.0,,'11111222,11111222,99999999' 
WAVCIS,ioos:station:WAVCIS:CSI15:1,2008-12-02T11:00:00Z,28.8332,-90.8320,10.0,2.908,5.0,,'11111222,11111222,99999999' 
WAVCIS,ioos:station:WAVCIS:CSI15:1,2008-12-02T12:00:00Z,28.8332,-90.8320,10.0,2.705,11.0,,'11111222,11111222,99999999' 
WAVCIS,ioos:station:WAVCIS:CSI15:1,2008-12-02T13:00:00Z,28.8332,-90.8320,10.0,2.417,39.0,,'11111222,11111222,99999999' 
WAVCIS,ioos:station:WAVCIS:CSI15:1,2008-12-02T14:00:00Z,28.8332,-90.8320,10.0,1.975,67.0,,'11111222,11111222,99999999' 
WAVCIS,ioos:station:WAVCIS:CSI15:1,2008-12-02T15:00:00Z,28.8332,-90.8320,10.0,1.888,117.0,,'11111222,11111222,99999999' 
WAVCIS,ioos:station:WAVCIS:CSI15:1,2008-12-02T16:00:00Z,28.8332,-90.8320,10.0,3.145,122.0,,'11111222,11111222,99999999' 
WAVCIS,ioos:station:WAVCIS:CSI15:1,2008-12-02T17:00:00Z,28.8332,-90.8320,10.0,3.534,136.0,,'11111222,11111222,99999999' 
WAVCIS,ioos:station:WAVCIS:CSI15:1,2008-12-02T18:00:00Z,28.8332,-90.8320,10.0,3.629,136.0,,'11111222,11111222,99999999' 
WAVCIS,ioos:station:WAVCIS:CSI15:1,2008-12-02T19:00:00Z,28.8332,-90.8320,10.0,3.08,148.0,,'11111222,11111222,99999999' 
WAVCIS,ioos:station:WAVCIS:CSI15:1,2008-12-02T20:00:00Z,28.8332,-90.8320,10.0,3.174,132.0,,'11111222,11111222,99999999' 
WAVCIS,ioos:station:WAVCIS:CSI15:1,2008-12-02T21:00:00Z,28.8332,-90.8320,10.0,4.095,137.0,,'11111222,11111222,99999999' 
WAVCIS,ioos:station:WAVCIS:CSI15:1,2008-12-02T22:00:00Z,28.8332,-90.8320,10.0,4.108,142.0,,'11111222,11111222,99999999' 
WAVCIS,ioos:station:WAVCIS:CSI15:1,2008-12-02T23:00:00Z,28.8332,-90.8320,10.0,4.169,143.0,,'11111222,11111222,99999999' 
WAVCIS,ioos:station:WAVCIS:CSI15:1,2008-12-03T00:00:00Z,28.8332,-90.8320,10.0,4.185,138.0,,'11111222,11111222,99999999' 
WAVCIS,ioos:station:WAVCIS:CSI15:1,2008-12-03T01:00:00Z,28.8332,-90.8320,10.0,4.371,139.0,,'11111222,11111222,99999999' 
WAVCIS,ioos:station:WAVCIS:CSI15:1,2008-12-03T02:00:00Z,28.8332,-90.8320,10.0,4.953,135.0,,'11111222,11111222,99999999' 
WAVCIS,ioos:station:WAVCIS:CSI15:1,2008-12-03T03:00:00Z,28.8332,-90.8320,10.0,6.244,134.0,,'11111222,11111222,99999999' 
WAVCIS,ioos:station:WAVCIS:CSI15:1,2008-12-03T04:00:00Z,28.8332,-90.8320,10.0,7.55,130.0,,'11111222,11111222,99999999' 
WAVCIS,ioos:station:WAVCIS:CSI15:1,2008-12-03T05:00:00Z,28.8332,-90.8320,10.0,8.69,131.0,,'11111222,11111222,99999999' 
WAVCIS,ioos:station:WAVCIS:CSI15:1,2008-12-03T06:00:00Z,28.8332,-90.8320,10.0,8.87,132.0,,'11111222,11111222,99999999' 
WAVCIS,ioos:station:WAVCIS:CSI15:1,2008-12-03T07:00:00Z,28.8332,-90.8320,10.0,9.3,130.0,,'11111222,11111222,99999999' 
WAVCIS,ioos:station:WAVCIS:CSI15:1,2008-12-03T08:00:00Z,28.8332,-90.8320,10.0,9.77,133.0,,'11111222,11111222,99999999' 
WAVCIS,ioos:station:WAVCIS:CSI15:1,2008-12-03T09:00:00Z,28.8332,-90.8320,10.0,9.14,134.0,,'11111222,11111222,99999999' 
WAVCIS,ioos:station:WAVCIS:CSI15:1,2008-12-03T10:00:00Z,28.8332,-90.8320,10.0,9.02,132.0,,'11111222,11111222,99999999' 
WAVCIS,ioos:station:WAVCIS:CSI15:1,2008-12-03T11:00:00Z,28.8332,-90.8320,10.0,8.62,131.0,,'11111222,11111222,99999999' 
WAVCIS,ioos:station:WAVCIS:CSI15:1,2008-12-03T12:00:00Z,28.8332,-90.8320,10.0,7.93,135.0,,'11111222,11111222,99999999' 
WAVCIS,ioos:station:WAVCIS:CSI15:1,2008-12-03T13:00:00Z,28.8332,-90.8320,10.0,9.13,140.0,,'11111222,11111222,99999999' 
WAVCIS,ioos:station:WAVCIS:CSI15:1,2008-12-03T14:00:00Z,28.8332,-90.8320,10.0,8.31,144.0,,'11111222,11111222,99999999' 
WAVCIS,ioos:station:WAVCIS:CSI15:1,2008-12-03T15:00:00Z,28.8332,-90.8320,10.0,8.55,148.0,,'11111222,11111222,99999999' 
WAVCIS,ioos:station:WAVCIS:CSI15:1,2008-12-03T16:00:00Z,28.8332,-90.8320,10.0,7.35,145.0,,'11111222,11111222,99999999' 
WAVCIS,ioos:station:WAVCIS:CSI15:1,2008-12-03T17:00:00Z,28.8332,-90.8320,10.0,8.32,145.0,,'11111222,11111222,99999999' 
WAVCIS,ioos:station:WAVCIS:CSI15:1,2008-12-03T18:00:00Z,28.8332,-90.8320,10.0,8.01,149.0,,'11111222,11111222,99999999' 
WAVCIS,ioos:station:WAVCIS:CSI15:1,2008-12-03T19:00:00Z,28.8332,-90.8320,10.0,7.67,150.0,,'11111222,11111222,99999999' 
WAVCIS,ioos:station:WAVCIS:CSI15:1,2008-12-03T20:00:00Z,28.8332,-90.8320,10.0,6.944,150.0,,'11111222,11111222,99999999' 
WAVCIS,ioos:station:WAVCIS:CSI15:1,2008-12-03T21:00:00Z,28.8332,-90.8320,10.0,6.455,151.0,,'11111222,11111222,99999999' 
WAVCIS,ioos:station:WAVCIS:CSI15:1,2008-12-03T22:00:00Z,28.8332,-90.8320,10.0,7.28,155.0,,'11111222,11111222,99999999' 
WAVCIS,ioos:station:WAVCIS:CSI15:1,2008-12-03T23:00:00Z,28.8332,-90.8320,10.0,5.02,146.0,,'11111222,11111222,99999999' 
WAVCIS,ioos:station:WAVCIS:CSI15:1,2008-12-04T00:00:00Z,28.8332,-90.8320,10.0,6.807,156.0,,'11111222,11111222,99999999' 
WAVCIS,ioos:station:WAVCIS:CSI15:1,2008-12-04T01:00:00Z,28.8332,-90.8320,10.0,6.546,146.0,,'11111222,11111222,99999999' 
WAVCIS,ioos:station:WAVCIS:CSI15:1,2008-12-04T02:00:00Z,28.8332,-90.8320,10.0,9.55,150.0,,'11111222,11111222,99999999' 
WAVCIS,ioos:station:WAVCIS:CSI15:1,2008-12-04T03:00:00Z,28.8332,-90.8320,10.0,8.44,137.0,,'11111222,11111222,99999999' 
WAVCIS,ioos:station:WAVCIS:CSI15:1,2008-12-04T04:00:00Z,28.8332,-90.8320,10.0,8.14,138.0,,'11111222,11111222,99999999' 
WAVCIS,ioos:station:WAVCIS:CSI15:1,2008-12-04T05:00:00Z,28.8332,-90.8320,10.0,10.71,141.0,,'11111222,11111222,99999999' 
WAVCIS,ioos:station:WAVCIS:CSI15:1,2008-12-04T06:00:00Z,28.8332,-90.8320,10.0,9.95,160.0,,'11111222,11111222,99999999' 
WAVCIS,ioos:station:WAVCIS:CSI15:1,2008-12-04T07:00:00Z,28.8332,-90.8320,10.0,9.51,160.0,,'11111222,11111222,99999999' 
WAVCIS,ioos:station:WAVCIS:CSI15:1,2008-12-04T08:00:00Z,28.8332,-90.8320,10.0,10.01,169.0,,'11111222,11111222,99999999' 
WAVCIS,ioos:station:WAVCIS:CSI15:1,2008-12-04T09:00:00Z,28.8332,-90.8320,10.0,10.73,172.0,,'11111222,11111222,99999999' 
WAVCIS,ioos:station:WAVCIS:CSI15:1,2008-12-04T10:00:00Z,28.8332,-90.8320,10.0,10.35,161.0,,'11111222,11111222,99999999' 
WAVCIS,ioos:station:WAVCIS:CSI15:1,2008-12-04T11:00:00Z,28.8332,-90.8320,10.0,9.06,162.0,,'11111222,11111222,99999999' 
WAVCIS,ioos:station:WAVCIS:CSI15:1,2008-12-04T12:00:00Z,28.8332,-90.8320,10.0,9.49,167.0,,'11111222,11111222,99999999' 
WAVCIS,ioos:station:WAVCIS:CSI15:1,2008-12-04T13:00:00Z,28.8332,-90.8320,10.0,8.33,163.0,,'11111222,11111222,99999999' 
WAVCIS,ioos:station:WAVCIS:CSI15:1,2008-12-04T14:00:00Z,28.8332,-90.8320,10.0,7.1,183.0,,'11111222,11111222,99999999' 
WAVCIS,ioos:station:WAVCIS:CSI15:1,2008-12-04T15:00:00Z,28.8332,-90.8320,10.0,4.836,197.0,,'11111222,11111222,99999999' 
WAVCIS,ioos:station:WAVCIS:CSI15:1,2008-12-04T16:00:00Z,28.8332,-90.8320,10.0,4.332,271.0,,'11111222,11111222,99999999' 
WAVCIS,ioos:station:WAVCIS:CSI15:1,2008-12-04T17:00:00Z,28.8332,-90.8320,10.0,2.949,238.0,,'11111222,11111222,99999999' 
WAVCIS,ioos:station:WAVCIS:CSI15:1,2008-12-04T18:00:00Z,28.8332,-90.8320,10.0,5.348,274.0,,'11111222,11111222,99999999' 
WAVCIS,ioos:station:WAVCIS:CSI15:1,2008-12-04T19:00:00Z,28.8332,-90.8320,10.0,3.973,292.0,,'11111222,11111222,99999999' 
WAVCIS,ioos:station:WAVCIS:CSI15:1,2008-12-04T20:00:00Z,28.8332,-90.8320,10.0,4.272,294.0,,'11111222,11111222,99999999' 
WAVCIS,ioos:station:WAVCIS:CSI15:1,2008-12-04T21:00:00Z,28.8332,-90.8320,10.0,7.13,347.0,,'11111222,11111222,99999999' 
WAVCIS,ioos:station:WAVCIS:CSI15:1,2008-12-04T22:00:00Z,28.8332,-90.8320,10.0,9.91,328.0,,'11111222,11111222,99999999' 
WAVCIS,ioos:station:WAVCIS:CSI15:1,2008-12-04T23:00:00Z,28.8332,-90.8320,10.0,10.3,337.0,,'11111222,11111222,99999999' 
WAVCIS,ioos:station:WAVCIS:CSI15:1,2008-12-05T00:00:00Z,28.8332,-90.8320,10.0,11.89,356.0,,'11111222,11111222,99999999' 
WAVCIS,ioos:station:WAVCIS:CSI15:1,2008-12-05T01:00:00Z,28.8332,-90.8320,10.0,11.18,354.0,,'11111222,11111222,99999999' 
WAVCIS,ioos:station:WAVCIS:CSI15:1,2008-12-05T02:00:00Z,28.8332,-90.8320,10.0,12.08,359.0,,'11111222,11111222,99999999' 
WAVCIS,ioos:station:WAVCIS:CSI15:1,2008-12-05T03:00:00Z,28.8332,-90.8320,10.0,12.39,0.0,,'11111222,11111222,99999999' 
WAVCIS,ioos:station:WAVCIS:CSI15:1,2008-12-05T04:00:00Z,28.8332,-90.8320,10.0,10.93,3.0,,'11111222,11111222,99999999' 
WAVCIS,ioos:station:WAVCIS:CSI15:1,2008-12-05T05:00:00Z,28.8332,-90.8320,10.0,12.21,0.0,,'11111222,11111222,99999999' 
WAVCIS,ioos:station:WAVCIS:CSI15:1,2008-12-05T06:00:00Z,28.8332,-90.8320,10.0,12.2,3.0,,'11111222,11111222,99999999' 
WAVCIS,ioos:station:WAVCIS:CSI15:1,2008-12-05T07:00:00Z,28.8332,-90.8320,10.0,12.26,2.0,,'11111222,11111222,99999999' 
WAVCIS,ioos:station:WAVCIS:CSI15:1,2008-12-05T08:00:00Z,28.8332,-90.8320,10.0,12.31,358.0,,'11111222,11111222,99999999' 
WAVCIS,ioos:station:WAVCIS:CSI15:1,2008-12-05T09:00:00Z,28.8332,-90.8320,10.0,12.29,2.0,,'11111222,11111222,99999999' 
WAVCIS,ioos:station:WAVCIS:CSI15:1,2008-12-05T10:00:00Z,28.8332,-90.8320,10.0,11.4,7.0,,'11111222,11111222,99999999' 
WAVCIS,ioos:station:WAVCIS:CSI15:1,2008-12-05T11:00:00Z,28.8332,-90.8320,10.0,12.44,4.0,,'11111222,11111222,99999999' 
WAVCIS,ioos:station:WAVCIS:CSI15:1,2008-12-05T12:00:00Z,28.8332,-90.8320,10.0,10.93,7.0,,'11111222,11111222,99999999' 
WAVCIS,ioos:station:WAVCIS:CSI15:1,2008-12-05T13:00:00Z,28.8332,-90.8320,10.0,9.53,7.0,,'11111222,11111222,99999999' 
WAVCIS,ioos:station:WAVCIS:CSI15:1,2008-12-05T14:00:00Z,28.8332,-90.8320,10.0,9.12,11.0,,'11111222,11111222,99999999' 
WAVCIS,ioos:station:WAVCIS:CSI15:1,2008-12-05T15:00:00Z,28.8332,-90.8320,10.0,8.17,20.0,,'11111222,11111222,99999999' 
WAVCIS,ioos:station:WAVCIS:CSI15:1,2008-12-05T16:00:00Z,28.8332,-90.8320,10.0,7.51,9.0,,'11111222,11111222,99999999' 
WAVCIS,ioos:station:WAVCIS:CSI15:1,2008-12-05T17:00:00Z,28.8332,-90.8320,10.0,7.2,17.0,,'11111222,11111222,99999999' 
WAVCIS,ioos:station:WAVCIS:CSI15:1,2008-12-05T18:00:00Z,28.8332,-90.8320,10.0,6.076,24.0,,'11111222,11111222,99999999' 
WAVCIS,ioos:station:WAVCIS:CSI15:1,2008-12-05T19:00:00Z,28.8332,-90.8320,10.0,5.534,2.0,,'11111222,11111222,99999999' 
WAVCIS,ioos:station:WAVCIS:CSI15:1,2008-12-05T20:00:00Z,28.8332,-90.8320,10.0,5.596,5.0,,'11111222,11111222,99999999' 
WAVCIS,ioos:station:WAVCIS:CSI15:1,2008-12-05T21:00:00Z,28.8332,-90.8320,10.0,7.58,9.0,,'11111222,11111222,99999999' 
WAVCIS,ioos:station:WAVCIS:CSI15:1,2008-12-05T22:00:00Z,28.8332,-90.8320,10.0,8.14,8.0,,'11111222,11111222,99999999' 
WAVCIS,ioos:station:WAVCIS:CSI15:1,2008-12-05T23:00:00Z,28.8332,-90.8320,10.0,7.93,17.0,,'11111222,11111222,99999999' 
WAVCIS,ioos:station:WAVCIS:CSI15:1,2008-12-06T00:00:00Z,28.8332,-90.8320,10.0,6.587,27.0,,'11111222,11111222,99999999' 
WAVCIS,ioos:station:WAVCIS:CSI15:1,2008-12-06T01:00:00Z,28.8332,-90.8320,10.0,6.832,16.0,,'11111222,11111222,99999999' 
WAVCIS,ioos:station:WAVCIS:CSI15:1,2008-12-06T02:00:00Z,28.8332,-90.8320,10.0,5.701,25.0,,'11111222,11111222,99999999' 
WAVCIS,ioos:station:WAVCIS:CSI15:1,2008-12-06T03:00:00Z,28.8332,-90.8320,10.0,4.213,26.0,,'11111222,11111222,99999999' 
WAVCIS,ioos:station:WAVCIS:CSI15:1,2008-12-06T04:00:00Z,28.8332,-90.8320,10.0,4.116,17.0,,'11111222,11111222,99999999' 
WAVCIS,ioos:station:WAVCIS:CSI15:1,2008-12-06T05:00:00Z,28.8332,-90.8320,10.0,3.601,13.0,,'11111222,11111222,99999999' 
WAVCIS,ioos:station:WAVCIS:CSI15:1,2008-12-06T06:00:00Z,28.8332,-90.8320,10.0,4.653,356.0,,'11111222,11111222,99999999' 
WAVCIS,ioos:station:WAVCIS:CSI15:1,2008-12-06T07:00:00Z,28.8332,-90.8320,10.0,5.797,339.0,,'11111222,11111222,99999999' 
WAVCIS,ioos:station:WAVCIS:CSI15:1,2008-12-06T08:00:00Z,28.8332,-90.8320,10.0,7.11,349.0,,'11111222,11111222,99999999' 
WAVCIS,ioos:station:WAVCIS:CSI15:1,2008-12-06T09:00:00Z,28.8332,-90.8320,10.0,6.404,358.0,,'11111222,11111222,99999999' 
WAVCIS,ioos:station:WAVCIS:CSI15:1,2008-12-06T10:00:00Z,28.8332,-90.8320,10.0,3.829,11.0,,'11111222,11111222,99999999' 
WAVCIS,ioos:station:WAVCIS:CSI15:1,2008-12-06T11:00:00Z,28.8332,-90.8320,10.0,1.543,347.0,,'11111222,11111222,99999999' 
WAVCIS,ioos:station:WAVCIS:CSI15:1,2008-12-06T12:00:00Z,28.8332,-90.8320,10.0,0.499,16.0,,'11111222,11111222,99999999' 
WAVCIS,ioos:station:WAVCIS:CSI15:1,2008-12-06T13:00:00Z,28.8332,-90.8320,10.0,3.046,300.0,,'11111222,11111222,99999999' 
WAVCIS,ioos:station:WAVCIS:CSI15:1,2008-12-06T14:00:00Z,28.8332,-90.8320,10.0,2.961,326.0,,'11111222,11111222,99999999' 
WAVCIS,ioos:station:WAVCIS:CSI15:1,2008-12-06T15:00:00Z,28.8332,-90.8320,10.0,1.092,267.0,,'11111222,11111222,99999999' 
WAVCIS,ioos:station:WAVCIS:CSI15:1,2008-12-06T16:00:00Z,28.8332,-90.8320,10.0,3.393,293.0,,'11111222,11111222,99999999' 
WAVCIS,ioos:station:WAVCIS:CSI15:1,2008-12-06T17:00:00Z,28.8332,-90.8320,10.0,7.44,306.0,,'11111222,11111222,99999999' 
WAVCIS,ioos:station:WAVCIS:CSI15:1,2008-12-06T18:00:00Z,28.8332,-90.8320,10.0,7.65,300.0,,'11111222,11111222,99999999' 
WAVCIS,ioos:station:WAVCIS:CSI15:1,2008-12-06T19:00:00Z,28.8332,-90.8320,10.0,7.43,298.0,,'11111222,11111222,99999999' 
WAVCIS,ioos:station:WAVCIS:CSI15:1,2008-12-06T20:00:00Z,28.8332,-90.8320,10.0,6.418,283.0,,'11111222,11111222,99999999' 
WAVCIS,ioos:station:WAVCIS:CSI15:1,2008-12-06T21:00:00Z,28.8332,-90.8320,10.0,7.66,278.0,,'11111222,11111222,99999999' 
WAVCIS,ioos:station:WAVCIS:CSI15:1,2008-12-06T22:00:00Z,28.8332,-90.8320,10.0,10.54,279.0,,'11111222,11111222,99999999' 
WAVCIS,ioos:station:WAVCIS:CSI15:1,2008-12-06T23:00:00Z,28.8332,-90.8320,10.0,9.33,286.0,,'11111222,11111222,99999999' 
WAVCIS,ioos:station:WAVCIS:CSI15:1,2008-12-07T00:00:00Z,28.8332,-90.8320,10.0,10.2,296.0,,'11111222,11111222,99999999' 
WAVCIS,ioos:station:WAVCIS:CSI15:1,2008-12-07T01:00:00Z,28.8332,-90.8320,10.0,9.44,300.0,,'11111222,11111222,99999999' 
WAVCIS,ioos:station:WAVCIS:CSI15:1,2008-12-07T02:00:00Z,28.8332,-90.8320,10.0,9.1,306.0,,'11111222,11111222,99999999' 
WAVCIS,ioos:station:WAVCIS:CSI15:1,2008-12-07T03:00:00Z,28.8332,-90.8320,10.0,8.9,312.0,,'11111222,11111222,99999999' 
WAVCIS,ioos:station:WAVCIS:CSI15:1,2008-12-07T04:00:00Z,28.8332,-90.8320,10.0,9.67,323.0,,'11111222,11111222,99999999' 
WAVCIS,ioos:station:WAVCIS:CSI15:1,2008-12-07T05:00:00Z,28.8332,-90.8320,10.0,7.29,334.0,,'11111222,11111222,99999999' 
WAVCIS,ioos:station:WAVCIS:CSI15:1,2008-12-07T06:00:00Z,28.8332,-90.8320,10.0,7.4,333.0,,'11111222,11111222,99999999' 
WAVCIS,ioos:station:WAVCIS:CSI15:1,2008-12-07T07:00:00Z,28.8332,-90.8320,10.0,8.73,335.0,,'11111222,11111222,99999999' 
WAVCIS,ioos:station:WAVCIS:CSI15:1,2008-12-07T08:00:00Z,28.8332,-90.8320,10.0,7.47,341.0,,'11111222,11111222,99999999' 
WAVCIS,ioos:station:WAVCIS:CSI15:1,2008-12-07T09:00:00Z,28.8332,-90.8320,10.0,7.75,345.0,,'11111222,11111222,99999999' 
WAVCIS,ioos:station:WAVCIS:CSI15:1,2008-12-07T10:00:00Z,28.8332,-90.8320,10.0,7.94,352.0,,'11111222,11111222,99999999' 
WAVCIS,ioos:station:WAVCIS:CSI15:1,2008-12-07T11:00:00Z,28.8332,-90.8320,10.0,7.17,351.0,,'11111222,11111222,99999999' 
WAVCIS,ioos:station:WAVCIS:CSI15:1,2008-12-07T12:00:00Z,28.8332,-90.8320,10.0,7.82,356.0,,'11111222,11111222,99999999' 
WAVCIS,ioos:station:WAVCIS:CSI15:1,2008-12-07T13:00:00Z,28.8332,-90.8320,10.0,7.24,356.0,,'11111222,11111222,99999999' 
WAVCIS,ioos:station:WAVCIS:CSI15:1,2008-12-07T14:00:00Z,28.8332,-90.8320,10.0,7.31,353.0,,'11111222,11111222,99999999' 
WAVCIS,ioos:station:WAVCIS:CSI15:1,2008-12-07T15:00:00Z,28.8332,-90.8320,10.0,7.55,2.0,,'11111222,11111222,99999999' 
WAVCIS,ioos:station:WAVCIS:CSI15:1,2008-12-07T16:00:00Z,28.8332,-90.8320,10.0,7.06,17.0,,'11111222,11111222,99999999' 
WAVCIS,ioos:station:WAVCIS:CSI15:1,2008-12-07T17:00:00Z,28.8332,-90.8320,10.0,6.596,24.0,,'11111222,11111222,99999999' 
WAVCIS,ioos:station:WAVCIS:CSI15:1,2008-12-07T18:00:00Z,28.8332,-90.8320,10.0,6.119,28.0,,'11111222,11111222,99999999' 
WAVCIS,ioos:station:WAVCIS:CSI15:1,2008-12-07T19:00:00Z,28.8332,-90.8320,10.0,6.219,24.0,,'11111222,11111222,99999999' 
WAVCIS,ioos:station:WAVCIS:CSI15:1,2008-12-07T20:00:00Z,28.8332,-90.8320,10.0,5.32,22.0,,'11111222,11111222,99999999' 
WAVCIS,ioos:station:WAVCIS:CSI15:1,2008-12-07T21:00:00Z,28.8332,-90.8320,10.0,5.398,22.0,,'11111222,11111222,99999999' 
WAVCIS,ioos:station:WAVCIS:CSI15:1,2008-12-07T22:00:00Z,28.8332,-90.8320,10.0,5.832,26.0,,'11111222,11111222,99999999' 
WAVCIS,ioos:station:WAVCIS:CSI15:1,2008-12-07T23:00:00Z,28.8332,-90.8320,10.0,5.125,33.0,,'11111222,11111222,99999999' 
WAVCIS,ioos:station:WAVCIS:CSI15:1,2008-12-08T00:00:00Z,28.8332,-90.8320,10.0,5.549,39.0,,'11111222,11111222,99999999' 
WAVCIS,ioos:station:WAVCIS:CSI15:1,2008-12-08T01:00:00Z,28.8332,-90.8320,10.0,5.886,45.0,,'11111222,11111222,99999999' 
WAVCIS,ioos:station:WAVCIS:CSI15:1,2008-12-08T02:00:00Z,28.8332,-90.8320,10.0,6.244,68.0,,'11111222,11111222,99999999' 
WAVCIS,ioos:station:WAVCIS:CSI15:1,2008-12-08T03:00:00Z,28.8332,-90.8320,10.0,6.432,67.0,,'11111222,11111222,99999999' 
WAVCIS,ioos:station:WAVCIS:CSI15:1,2008-12-08T04:00:00Z,28.8332,-90.8320,10.0,6.904,75.0,,'11111222,11111222,99999999' 
WAVCIS,ioos:station:WAVCIS:CSI15:1,2008-12-08T05:00:00Z,28.8332,-90.8320,10.0,7.87,87.0,,'11111222,11111222,99999999' 
WAVCIS,ioos:station:WAVCIS:CSI15:1,2008-12-08T06:00:00Z,28.8332,-90.8320,10.0,7.22,88.0,,'11111222,11111222,99999999' 
WAVCIS,ioos:station:WAVCIS:CSI15:1,2008-12-08T07:00:00Z,28.8332,-90.8320,10.0,5.973,89.0,,'11111222,11111222,99999999' 
WAVCIS,ioos:station:WAVCIS:CSI15:1,2008-12-08T08:00:00Z,28.8332,-90.8320,10.0,6.015,104.0,,'11111222,11111222,99999999' 
WAVCIS,ioos:station:WAVCIS:CSI15:1,2008-12-08T09:00:00Z,28.8332,-90.8320,10.0,5.389,111.0,,'11111222,11111222,99999999' 
WAVCIS,ioos:station:WAVCIS:CSI15:1,2008-12-08T10:00:00Z,28.8332,-90.8320,10.0,6.458,116.0,,'11111222,11111222,99999999' 
WAVCIS,ioos:station:WAVCIS:CSI15:1,2008-12-08T11:00:00Z,28.8332,-90.8320,10.0,6.485,118.0,,'11111222,11111222,99999999' 
WAVCIS,ioos:station:WAVCIS:CSI15:1,2008-12-08T12:00:00Z,28.8332,-90.8320,10.0,5.332,132.0,,'11111222,11111222,99999999' 
WAVCIS,ioos:station:WAVCIS:CSI15:1,2008-12-08T13:00:00Z,28.8332,-90.8320,10.0,5.461,127.0,,'11111222,11111222,99999999' 
WAVCIS,ioos:station:WAVCIS:CSI15:1,2008-12-08T14:00:00Z,28.8332,-90.8320,10.0,5.738,111.0,,'11111222,11111222,99999999' 
WAVCIS,ioos:station:WAVCIS:CSI15:1,2008-12-08T15:00:00Z,28.8332,-90.8320,10.0,5.182,112.0,,'11111222,11111222,99999999' 
WAVCIS,ioos:station:WAVCIS:CSI15:1,2008-12-08T16:00:00Z,28.8332,-90.8320,10.0,5.631,107.0,,'11111222,11111222,99999999' 
WAVCIS,ioos:station:WAVCIS:CSI15:1,2008-12-08T17:00:00Z,28.8332,-90.8320,10.0,4.978,114.0,,'11111222,11111222,99999999' 
WAVCIS,ioos:station:WAVCIS:CSI15:1,2008-12-08T18:00:00Z,28.8332,-90.8320,10.0,5.595,121.0,,'11111222,11111222,99999999' 
WAVCIS,ioos:station:WAVCIS:CSI15:1,2008-12-08T19:00:00Z,28.8332,-90.8320,10.0,6.02,117.0,,'11111222,11111222,99999999' 
WAVCIS,ioos:station:WAVCIS:CSI15:1,2008-12-08T20:00:00Z,28.8332,-90.8320,10.0,6.905,118.0,,'11111222,11111222,99999999' 
WAVCIS,ioos:station:WAVCIS:CSI15:1,2008-12-08T21:00:00Z,28.8332,-90.8320,10.0,7.06,110.0,,'11111222,11111222,99999999' 
WAVCIS,ioos:station:WAVCIS:CSI15:1,2008-12-08T22:00:00Z,28.8332,-90.8320,10.0,5.872,103.0,,'11111222,11111222,99999999' 
WAVCIS,ioos:station:WAVCIS:CSI15:1,2008-12-08T23:00:00Z,28.8332,-90.8320,10.0,7.91,110.0,,'11111222,11111222,99999999' 
WAVCIS,ioos:station:WAVCIS:CSI15:1,2008-12-09T00:00:00Z,28.8332,-90.8320,10.0,9.17,111.0,,'11111222,11111222,99999999' 
WAVCIS,ioos:station:WAVCIS:CSI15:1,2008-12-09T01:00:00Z,28.8332,-90.8320,10.0,9.52,116.0,,'11111222,11111222,99999999' 
WAVCIS,ioos:station:WAVCIS:CSI15:1,2008-12-09T02:00:00Z,28.8332,-90.8320,10.0,10.41,116.0,,'11111222,11111222,99999999' 
WAVCIS,ioos:station:WAVCIS:CSI15:1,2008-12-09T03:00:00Z,28.8332,-90.8320,10.0,9.96,118.0,,'11111222,11111222,99999999' 
WAVCIS,ioos:station:WAVCIS:CSI15:1,2008-12-09T04:00:00Z,28.8332,-90.8320,10.0,9.5,123.0,,'11111222,11111222,99999999' 
WAVCIS,ioos:station:WAVCIS:CSI15:1,2008-12-09T05:00:00Z,28.8332,-90.8320,10.0,10.54,123.0,,'11111222,11111222,99999999' 